Location: Adrasan
(36.3319°N, 30.4314°E)
Time: 06:41:58
(UTC+00:00)

Cosmos 676 Rocket - Pass Details

Date: 09 December 2023
Orbit: 753 x 781 km, 74.0° (Epoch: 29 February)

Event Time Altitude Azimuth Distance (km) Brightness Sun altitude
Rises 16:07:31 0° 344° (NNW) 3,256 7.3 -16.5°
Reaches altitude 10° 16:09:55 10° 346° (NNW) 2,322 6.5 -17.0°
Maximum altitude 16:15:11 74° 71° (ENE) 802 3.9 -18.0°
Drops below altitude 10° 16:20:22 10° 157° (SSE) 2,288 6.4 -19.0°
Sets 16:22:44 0° 159° (SSE) 3,206 7.2 -19.5°
